Dewpoint
71 71 70 70 72 74 74 74 74 75 74 71 72 73 72 71 72 72 73 73 73 73 73 72 72 73 72 71 72 71 70 71 68 68 70 70 73 72 71 72 73 73 73
68 71 72 73 73 71 72 74 74 74 74 73 72 69 69 67 69 70 71 72 72 72 73 73 71 71 73 72 73 72 71 72 71 69 70 70 71 73 73 73 72 71 72
68 67 71 71 71 71 72 72 74 73 73 72 71 69 68 68 67 66 68 71 72 71 72 73 72 72 71 71 71 70 71 71 71 70 69 72 70 71 72 73 73 73 72
67 68 68 68 70 70 71 72 71 72 73 71 71 70 68 68 67 65 66 68 71 71 72 72 72 72 71 72 72 72 73 72 72 70 70 69 70 71 71 70 71 72 71
67 67 68 69 70 70 70 71 71 71 71 71 72 71 71 68 65 66 67 67 66 71 72 72 72 71 70 71 71 72 73 71 71 70 68 69 67 68 67 68 69 70 71
66 66 67 68 69 69 70 70 70 70 70 70 70 70 70 69 65 64 66 69 67 63 71 72 72 70 69 67 68 69 72 72 71 69 68 67 68 68 69 69 69 68 65
65 65 66 67 68 70 70 69 69 70 71 70 70 70 69 69 65 64 65 67 66 70 72 72 72 70 69 71 66 66 67 66 68 71 69 70 68 70 70 68 68 68 68
62 63 64 64 66 68 68 68 69 69 70 69 70 70 69 69 61 61 64 70 70 71 71 72 72 72 71 70 70 70 70 70 68 68 71 71 70 70 70 68 68 69 71
61 63 63 63 65 64 65 66 67 70 69 69 70 69 69 69 58 58 64 70 70 70 71 72 72 72 66 62 70 69 70 70 66 63 64 64 63 63 64 68 67 67 67
61 62 63 63 63 65 66 67 67 69 68 69 68 69 63 68 56 56 61 67 69 68 71 71 64 67 60 59 69 68 67 67 67 67 69 65 62 64 61 67 68 66 68
61 62 63 64 64 65 65 66 66 66 66 66 66 66 66 61 62 54 55 67 68 69 70 69 67 58 57 57 59 67 65 66 65 66 66 66 67 68 69 67 68 68 66
62 61 62 63 64 64 64 64 64 65 65 65 64 63 63 63 55 55 54 56 62 67 67 69 65 55 54 54 58 57 56 59 64 64 64 65 65 65 67 68 69 69 70
62 63 64 63 63 65 64 65 64 65 64 64 65 65 63 66 63 54 54 57 58 66 66 60 53 51 51 55 53 54 54 63 63 62 63 64 64 65 67 68 68 68 68
61 62 63 63 63 65 62 59 59 58 61 64 65 64 64 62 62 63 62 62 58 60 58 61 60 59 58 60 60 57 63 64 64 64 66 67 68 67 66 67 66 64 64
60 61 61 61 62 63 61 59 59 55 55 58 59 57 58 57 53 48 51 56 56 52 59 61 61 62 61 61 63 64 64 64 63 64 64 64 65 65 66 67 67 66 65
59 58 57 54 55 59 60 60 50 49 46 45 46 54 53 48 46 46 45 45 45 46 59 61 62 62 61 62 60 60 61 61 63 61 61 61 61 61 61 63 64 64 63
60 59 55 52 52 57 56 59 59 54 48 46 44 45 49 48 45 46 46 46 46 49 60 62 61 60 60 61 60 59 58 61 62 61 61 60 60 60 59 60 61 61 60
60 53 53 51 50 50 52 52 52 58 57 56 49 49 44 44 44 44 46 48 58 53 57 59 59 61 60 60 59 59 59 61 61 60 59 57 59 59 59 58 59 59 60
52 50 51 52 51 54 53 50 48 51 53 58 55 50 47 45 46 46 45 56 58 57 57 58 58 61 60 60 61 61 61 60 59 59 60 60 60 59 58 57 57 53 55
57 52 52 52 49 48 47 47 48 54 55 52 53 56 55 52 54 56 56 59 60 57 57 57 58 60 61 61 61 61 60 60 59 59 59 59 58 58 56 56 55 55 57
50 53 53 49 48 49 50 49 50 52 52 51 53 55 48 55 53 53 57 58 57 55 56 55 53 60 61 61 60 60 59 58 59 57 57 58 57 54 57 56 57 55 54
53 54 50 49 48 50 49 49 50 50 50 49 52 53 45 53 52 52 53 52 53 56 57 60 56 55 55 58 59 56 55 55 55 57 56 56 56 56 56 55 55 55 54
51 48 49 51 49 49 49 47 48 48 48 48 49 50 50 52 52 52 52 53 56 55 55 56 56 54 55 57 57 59 54 56 57 58 58 58 59 58 57 56 55 54 55
52 50 46 46 48 45 47 45 45 43 46 50 48 50 50 51 50 51 52 52 53 53 54 53 54 53 55 51 50 51 50 48 51 58 58 58 58 57 58 57 56 55 54
47 47 46 46 43 44 43 42 43 41 41 43 44 46 46 48 50 49 50 51 50 50 50 50 51 53 50 46 45 42 38 35 41 42 54 57 57 57 56 55 54 54 55
42 43 42 42 41 41 40 40 40 41 42 43 44 46 47 46 46 48 50 50 49 48 48 48 48 48 48 44 41 37 35 34 37 35 41 52 57 56 54 53 52 52 54
Lifted_Index
-6 -6 -7 -7 -8 -8 -8 -8 -8 -8 -8 -7 -6 -5 -5 -4 -4 -4 -5 -6 -6 -7 -6 -6 -6 -5 -5 -5 -4 -4 -4 -4 -5 -4 -4 -4 -4 -5 -5 -5 -5 -5 -4
-5 -6 -7 -7 -8 -8 -8 -8 -8 -8 -8 -7 -6 -4 -3 -3 -2 -2 -4 -5 -6 -6 -6 -6 -6 -6 -5 -5 -5 -4 -4 -5 -5 -4 -4 -4 -4 -4 -5 -5 -5 -4 -4
-5 -5 -6 -7 -7 -7 -7 -7 -7 -7 -7 -7 -6 -4 -3 -1 -0 -0 -2 -4 -5 -6 -6 -6 -6 -6 -6 -5 -5 -5 -5 -5 -5 -5 -4 -4 -4 -4 -4 -5 -5 -4 -4
-4 -4 -5 -6 -7 -7 -7 -7 -7 -7 -7 -7 -7 -5 -4 -3 -1 -0 -1 -2 -4 -5 -6 -6 -6 -6 -6 -6 -6 -6 -5 -5 -5 -5 -5 -4 -4 -4 -4 -4 -4 -4 -4
-3 -3 -4 -5 -6 -6 -6 -6 -6 -6 -7 -7 -7 -7 -6 -5 -3 -1 -1 -1 -2 -3 -5 -6 -6 -6 -6 -6 -6 -6 -6 -6 -6 -5 -5 -4 -4 -3 -3 -3 -3 -3 -3
-2 -2 -3 -4 -5 -6 -6 -6 -6 -6 -6 -7 -7 -7 -6 -5 -4 -3 -2 -2 -1 -1 -4 -6 -6 -6 -6 -6 -6 -6 -6 -5 -5 -5 -4 -4 -3 -3 -3 -3 -2 -2 -2
-1 -1 -2 -3 -4 -5 -5 -5 -5 -5 -6 -6 -6 -6 -6 -5 -4 -3 -2 -2 -2 -2 -4 -6 -6 -5 -5 -5 -5 -5 -4 -4 -4 -4 -3 -3 -2 -2 -2 -2 -2 -2 -2
0 -0 -1 -2 -3 -4 -4 -4 -5 -5 -5 -6 -6 -5 -5 -4 -4 -3 -3 -3 -3 -4 -5 -5 -5 -5 -5 -4 -4 -4 -3 -3 -3 -3 -3 -2 -2 -1 -1 -1 -1 -2 -2
1 1 -0 -1 -1 -2 -3 -3 -4 -4 -5 -5 -5 -5 -4 -4 -3 -3 -2 -3 -3 -3 -4 -4 -4 -4 -4 -3 -3 -3 -3 -2 -2 -2 -2 -1 -1 -0 0 1 0 -1 -1
2 1 1 0 -0 -1 -2 -2 -3 -3 -4 -4 -4 -4 -4 -3 -3 -2 -1 -2 -2 -2 -2 -2 -2 -2 -2 -2 -2 -2 -2 -2 -2 -1 -1 -0 1 1 2 2 1 0 -0
1 1 1 1 0 -0 -1 -1 -2 -2 -3 -3 -3 -3 -3 -3 -2 -2 -1 -1 -1 -1 -1 -1 -1 -0 -1 -0 -1 -1 -1 -1 -0 -0 0 1 1 2 1 1 1 1 0
1 1 1 1 1 0 0 0 -0 -1 -1 -2 -2 -2 -2 -2 -2 -2 -1 -1 -1 -1 -1 -1 -0 0 0 1 1 0 0 0 1 1 1 1 1 1 1 1 0 0 0
-0 -0 -0 -0 -0 -0 -0 0 0 -0 -1 -2 -2 -3 -3 -3 -2 -2 -1 -1 -1 -1 -1 -1 -0 0 0 1 1 1 1 1 1 1 0 0 1 1 1 0 0 0 0
-1 -1 -1 -1 -1 -1 -0 0 0 -0 -1 -2 -2 -2 -2 -1 -1 -0 0 0 0 0 0 0 0 1 1 1 1 0 0 0 0 0 -0 -0 0 0 0 0 0 1 1
-1 -1 -1 -1 -1 -1 -0 0 1 0 -0 -0 -0 -0 1 1 2 2 3 3 3 2 2 1 1 1 1 1 1 1 1 1 1 0 0 0 0 0 0 0 1 1 1
-1 -1 -1 -0 -0 -1 -0 0 1 1 1 2 2 2 3 3 3 4 4 5 5 4 2 2 1 1 1 1 2 2 2 2 2 2 2 2 2 2 2 1 1 1 1
0 -0 0 1 1 1 1 1 1 1 2 2 3 3 3 3 3 4 4 5 4 4 2 2 1 1 1 2 2 3 3 3 3 3 3 3 3 3 3 2 2 2 2
1 1 1 2 2 2 2 2 2 1 1 1 2 3 3 3 3 3 4 4 3 3 2 2 2 2 2 2 3 3 3 3 3 3 3 3 3 3 3 3 3 2 2
2 2 3 3 3 3 3 3 3 2 2 1 2 2 3 3 3 3 3 3 2 2 2 2 2 2 2 2 3 3 3 3 3 3 3 3 3 3 3 3 3 3 3
2 3 3 3 3 3 3 3 3 3 3 3 2 2 3 3 4 3 3 2 1 2 2 2 2 2 2 2 2 2 2 2 3 3 2 2 3 3 3 3 3 3 3
2 2 2 3 3 3 3 3 3 3 3 3 3 3 3 3 4 3 2 1 2 2 2 3 2 2 2 2 2 2 2 2 2 3 3 2 2 3 3 3 3 3 3
1 1 2 2 2 3 3 3 3 3 3 3 3 3 3 3 3 3 3 2 2 2 2 2 2 2 2 2 2 2 3 3 3 2 2 2 2 3 3 3 3 3 3
1 2 2 2 2 3 3 3 3 3 3 3 3 3 3 3 3 3 3 3 3 3 2 2 2 3 3 2 2 3 3 3 2 2 2 2 2 2 2 3 3 3 3
2 2 2 3 3 3 3 3 4 4 4 4 4 4 4 4 4 4 4 4 4 3 3 3 3 3 3 3 3 3 2 2 2 2 2 2 1 2 2 2 2 2 2
3 3 3 4 4 4 4 5 5 5 5 5 4 4 5 5 5 5 5 5 5 4 4 4 4 5 5 4 4 4 3 3 3 3 2 2 2 2 2 2 2 2 2
4 4 4 4 5 5 5 6 6 6 5 5 5 5 5 5 6 6 6 6 6 5 5 5 5 6 6 6 6 5 4 3 3 3 3 2 2 2 2 2 2 2 2